sat.trackr.live / text

‹ back to catalog

STARLINK-31769

NORAD 59617 · 2024-080S

PAYLOAD ACTIVE UNKNOWN

§ Identity

Operator
Country
US
Launch date
2024-04-28
Launch site
AFETR
Launch vehicle
Mass (kg)
RCS (m²)

Purposes: comms

External: N2YO · Heavens-Above · Gunter

§ Orbital elements

Epoch: 2026-09-21T08:35:13.774848Z

Period
94.27 min
Inclination
43.0040°
Eccentricity
0.0001403
Mean motion
15.27579400 rev/d
Perigee alt
482.1 km
Apogee alt
484.0 km
Semi-major
6,861.2 km
B*
2.1960e-5
RAAN
13.2130°
Arg perigee
282.4599°
Mean anomaly
77.6096°
Rev number
13,445

§ Raw data

STARLINK-317691 59617U 24080S   26264.35779832  .00000342  00000+0  21960-4 0  99962 59617  43.0040  13.2130 0001403 282.4599  77.6096 15.27579400134450

JSON: /api/v1/satellites/59617 · /tle

For live sub-satellite position, see the globe view (requires WebGL).

§ Visibility from observer

Set your observer location to see the next 7 days of passes ≥ 10°. The values pass through the URL so the page stays shareable.

No JS? Fill the form by hand. The geolocation button needs JavaScript.